Regional Weather Roundup
Issued by NWS

Home | Current Version | Previous Version | Graphics & Text | Print | Product List | Glossary Off
Versions: 1 2 3 4 5 6 7 8 9 10 11 12 13 14 15 16 17 18 19 20 21 22 23 24 25 26 27 28 29 30 31 32 33 34 35 36 37 38 39 40 41 42 43 44 45 46 47 48 49 50

000
ASUS43 KMPX 200310
RWRMN
WEATHER ROUNDUP FOR MINNESOTA
NATIONAL WEATHER SERVICE TWIN CITIES/CHANHASSEN MN
1000 PM CDT SUN OCT 19 2014


NOTE: "FAIR" INDICATES FEW OR NO CLOUDS BELOW 12,000 FEET WITH NO
SIGNIFICANT WEATHER AND/OR OBSTRUCTIONS TO VISIBILITY. N/A MEANS
CURRENT SKY AND/OR WEATHER CONDITIONS ARE NOT AVAILABLE.

MNZ060>063-068>070-200400-
   Twin Cities Metro

CITY           SKY/WX    TMP DP  RH WIND       PRES   REMARKS
TWIN CITIES    CLEAR     59  42  53 NW14      29.82R
ST PAUL        CLEAR     59  42  53 NW13      29.82R
CRYSTAL        CLEAR     59  42  53 NW10      29.82R
BLAINE         CLEAR     59  43  55 NW10      29.82R
LAKEVILLE      CLEAR     54  43  66 W7        29.82S
EDEN PRAIRIE   CLEAR     60  42  51 NW15G21   29.82R
SOUTH ST PAUL  CLEAR     61  41  47 NW10G17   29.81R
LAKE ELMO      FAIR      57  43  58 NW8       29.82R
$$
MNZ001>005-007-008-013>017-022>024-027-028-200400-
   Northwest Minnesota

CITY           SKY/WX    TMP DP  RH WIND       PRES   REMARKS
BEMIDJI        PTCLDY    47  40  76 W3        29.87S
HALLOCK        CLEAR     48  39  71 NW8       29.89R
ROSEAU         CLEAR     45  39  81 CALM      29.87R
WARROAD        CLOUDY    45  41  87 CALM      29.87S
THIEF RVR FALL PTCLDY    48  39  71 W3        29.89R
CROOKSTON      CLEAR     46  39  76 W5        29.90R
FOSSTON        CLOUDY    43  37  81 CALM      29.90R
DETROIT LAKES  CLEAR     50  43  76 CALM      29.91S
MOORHEAD       CLEAR     48  41  76 W6        29.92R
PARK RAPIDS    CLEAR     49  41  74 NW5       29.88R
MAHNOMEN       FAIR      43  38  82 CALM      29.89R
$$
MNZ006-009>011-018-025>026-200400-
   North Central Minnesota

CITY           SKY/WX    TMP DP  RH WIND       PRES   REMARKS
BAUDETTE       CLOUDY    52  42  69 N13       29.85S
FLAG ISLAND    MOCLDY    52  45  76 NW10      29.84S
INTL FALLS     CLOUDY    49  42  77 NW7       29.82R
WASKISH        PTCLDY    43  39  87 CALM      29.86R
BIG FORK       PTCLDY    48  41  76 CALM      29.85R
LONGVILLE      CLEAR     52  43  71 NW3       29.86R
GRAND RAPIDS   CLEAR     52  39  62 NW9       29.84R
CRANE LAKE     CLOUDY    48  43  81 CALM      29.82R
ORR            CLOUDY    48  39  71 NW6       29.79S
COOK           CLOUDY    45  41  87 W3        29.82R
WALKER         FAIR      47  40  75 W5        29.87S
$$
MNZ012-019>021-037-200400-
   Northeast Minnesota

CITY           SKY/WX    TMP DP  RH WIND       PRES   REMARKS
DULUTH         PTCLDY    53  41  63 NW13      29.79R
ELY            MOCLDY    50  41  71 NW8       29.79S
HIBBING        CLEAR     47  39  74 N6        29.82R
EVELETH        CLEAR     50  41  71 NW6       29.82R
DULUTH HARBOR  MOCLDY    57  45  62 N8        29.79R
TWO HARBORS    CLEAR     55  34  44 CALM      29.75R
SILVER BAY     CLEAR     54  43  66 NW7       29.75R
GRAND MARAIS     N/A     46  42  86 CALM      29.74S
G MARAIS ARPRT CLOUDY    48  39  71 NW7       29.74S
$$
MNZ029>031-032-039>041-046>048-054>057-064-200400-
   West Central Minnesota

CITY           SKY/WX    TMP DP  RH WIND       PRES   REMARKS
FERGUS FALLS   CLEAR     52  37  58 CALM      29.92S
WHEATON        CLEAR     48  37  66 W3        29.95R
MORRIS         CLEAR     48  37  66 NW5       29.92R
ALEXANDRIA     CLEAR     53  41  63 NW8       29.92R
ELBOW LAKE     FAIR      50  40  69 N5        29.92R
WADENA         CLEAR     48  41  76 W5        29.90R
GLENWOOD       CLEAR     48  41  76 NW8       29.91S
APPLETON       CLEAR     48  37  66 NW5       29.92R
BENSON         CLEAR     52  39  62 NE6       29.92R
ORTONVILLE     CLEAR     54  37  54 NW6       29.94R
MADISON        CLEAR     54  39  58 NW7       29.93R
WILLMAR        FAIR      57  39  51 NW12      29.92R
$$
MNZ033>034-036-042>043-049>051-058-059-200400-
   Central Minnesota

CITY           SKY/WX    TMP DP  RH WIND       PRES   REMARKS
ST CLOUD       CLEAR     57  42  57 NW10      29.86R
SAUK CENTRE    FAIR      50  41  70 NW6       29.90R
PAYNESVILLE    CLEAR     50  40  68 W6        29.90R
AITKIN         CLEAR     55  45  67 NW6       29.84R
PINE RIVER     CLEAR     52  43  71 NW5       29.91R
BRAINERD       CLEAR     53  42  66 NW9       29.87R
STAPLES        CLEAR     46  39  76 W5        29.89R
LONG PRAIRIE   FAIR      52  41  66 W8        29.90R
LITTLE FALLS   CLEAR     54  41  62 NW3       29.87R
LITCHFIELD     CLEAR     57  43  58 NW9       29.89R
BUFFALO        CLEAR     57  41  54 W10       29.86R
MAPLE LAKE     CLEAR     57  44  61 NW8       29.87R
$$
MNZ037-044-045-052-053-200400-
   East Central Minnesota

CITY           SKY/WX    TMP DP  RH WIND       PRES   REMARKS
PRINCETON      CLEAR     55  43  62 W8        29.84S
MORA           CLEAR     54  41  62 NW12      29.84R
CAMBRIDGE      CLEAR     57  43  58 NW6       29.81R
RUSH CITY      MOCLDY    51  41  70 NW5       29.82R
MOOSE LAKE     PTCLDY    54  41  62 NW5       29.80R
HINCKLEY       FAIR      54  43  66 NW7       29.81R
CLOQUET        CLEAR     54  41  62 NW9       29.80R
MCGREGOR       CLEAR     52  43  71 NW6       29.84R
$$
MNZ071>073-080-081-089-090-097-098-200400-
   Southwest Minnesota

CITY           SKY/WX    TMP DP  RH WIND       PRES   REMARKS
MONTEVIDEO     CLEAR     54  41  62 NE8       29.93R
GRANITE FALLS  CLEAR     56  40  55 NW9       29.93R
CANBY          CLEAR     52  40  63 NW6       29.95R
MARSHALL       CLEAR     52  37  58 NW10      29.92R
REDWOOD FALLS  CLEAR     59  40  49 NW10      29.89R
OLIVIA         CLEAR     52  39  62 N9        29.89R
PIPESTONE      CLEAR     55  37  50 N5        29.94S
WINDOM         CLEAR     46  37  71 W7        29.91R
WORTHINGTON    CLEAR     54  37  54 NW8       29.93S
JACKSON        CLEAR     54  37  54 W7        29.91S
TRACY          CLEAR     56  40  54 NW8       29.92R
SLAYTON        CLEAR     51  38  60 NW7       29.94R
$$
MNZ065>067-074>077-082>085-091>093-200400-
   South Central Minnesota

CITY           SKY/WX    TMP DP  RH WIND       PRES   REMARKS
MANKATO        CLEAR     57  37  47 NW9       29.86R
NEW ULM        CLEAR     57  43  58 NW13      29.87R
ST JAMES       CLEAR     54  39  58 NW6       29.89R
FAIRMONT       CLEAR     55  37  50 NW10      29.88S
GLENCOE        CLEAR     59  44  56 NW12      29.86R
FARIBAULT      CLEAR     54  43  66 W6        29.84R
OWATONNA       CLEAR     54  41  62 W7        29.84R
WASECA         CLEAR     50  37  62 W6        29.86S
ALBERT LEA     CLEAR     54  45  71 W5        29.85S
$$
MNZ078>079-086>088-094>096-200400-
   Southeast Minnesota

CITY           SKY/WX    TMP DP  RH WIND       PRES   REMARKS
ROCHESTER      CLEAR     54  44  69 W8        29.83S
RED WING       CLEAR     52  45  76 W5        29.79S
STANTON        CLEAR     52  43  71 NW8       29.81S
DODGE CENTER   CLEAR     50  43  76 W8        29.83S
WINONA         CLEAR     54  45  71 CALM      29.79S
AUSTIN         CLEAR     55  45  67 W5        29.84S
PRESTON        CLEAR     54  45  69 W13       29.84R
$$
ABBREVIATIONS USED IN REMARKS
   TC - TEMPERATURES IN CELSIUS
  WCI - WIND CHILL INDEX
   HX - HEAT INDEX
  VSB - VISIBILITY
$$



USA.gov is the U.S. government's official web portal to all federal, state and local government web resources and services.